Weather reports worldwide

Advertisment
Le Luc, France (7675): temperature & dewpoint: 16.03.2019 18:00:00 - 22.03.2019 18:00:00 (CET)Le Luc, France (7675): temperature 5cm: 16.03.2019 18:00:00 - 22.03.2019 18:00:00 (CET)Le Luc, France (7675): wind speed & gusts: 16.03.2019 18:00:00 - 22.03.2019 18:00:00 (CET)Le Luc, France (7675): wind direction: 16.03.2019 18:00:00 - 22.03.2019 18:00:00 (CET)Le Luc, France (7675): reduced air pressure: 16.03.2019 18:00:00 - 22.03.2019 18:00:00 (CET)Le Luc, France (7675): visibility: 16.03.2019 18:00:00 - 22.03.2019 18:00:00 (CET)Le Luc, France (7675): sunshine duration: 16.03.2019 18:00:00 - 22.03.2019 18:00:00 (CET)Le Luc, France (7675): precipitation: 16.03.2019 18:00:00 - 22.03.2019 18:00:00 (CET)
Date & Time tt [°C] td [°C] tt 5cm [°C] ff [km/h] ff [kn] fx [km/h] fx [kn] dd ppp [hPa] vv [km] sd [min] rr [mm]
22.03.2019 18:00:00 19,6 -1,5 21,8 8 4 19 10 ESE 1025,4 44 58 0,0
22.03.2019 17:00:00 20,4 -0,9 22,0 14 7 25 13 SE 1025,5 40 60 0,0
22.03.2019 16:00:00 20,8 0,0 21,9 21 11 32 18 ESE 1025,6 20 60 0,0
22.03.2019 15:00:00 21,5 -1,1 25,5 22 12 29 16 ESE 1026,0 39 60 0,0
22.03.2019 14:00:00 22,1 -1,9 25,7 22 12 31 17 ESE 1026,2 38 60 0,0
22.03.2019 13:00:00 22,8 -2,8 27,7 12 7 23 13 ESE 1026,6 39 60 0,0
22.03.2019 12:00:00 21,8 -0,9 25,9 4 2 9 5 ESE 1027,1 - 60 0,0
22.03.2019 11:00:00 18,2 2,1 24,1 4 2 10 5 E 1027,7 38 60 0,0
22.03.2019 10:00:00 14,2 1,8 16,8 2 1 8 4 ESE 1028,0 20 60 0,0
22.03.2019 09:00:00 9,3 1,0 10,2 4 2 9 5 ESE 1028,4 43 60 0,0
22.03.2019 08:00:00 4,8 0,0 1,2 0 0 4 2 N 1028,6 35 60 0,0
22.03.2019 07:00:00 0,1 -1,8 -2,9 0 0 3 2 N 1028,6 42 4 0,0
22.03.2019 06:00:00 -0,2 -2,6 -2,8 0 0 2 1 N 1028,1 44 0 0,0
22.03.2019 05:00:00 -0,1 -2,2 -2,3 0 0 2 1 N 1028,0 42 0 0,0
22.03.2019 04:00:00 1,1 -1,5 -1,7 0 0 5 3 N 1028,0 44 0 0,0
22.03.2019 03:00:00 1,4 -1,5 -1,2 0 0 4 2 N 1027,9 47 0 0,0
22.03.2019 02:00:00 3,0 -1,2 -0,8 2 1 4 2 W 1028,2 46 0 0,0
22.03.2019 01:00:00 3,4 -1,2 0,5 0 0 7 4 N 1028,4 46 0 0,0
22.03.2019 00:00:00 4,0 -1,0 1,9 5 3 19 11 SE 1028,4 50 0 0,0
21.03.2019 23:00:00 5,1 -0,9 2,9 4 2 14 8 NW 1028,5 50 0 0,0
21.03.2019 22:00:00 6,0 -1,0 3,2 0 0 9 5 N 1028,1 49 0 0,0
21.03.2019 21:00:00 8,4 -0,4 5,0 3 1 5 3 W 1027,6 50 0 0,0
21.03.2019 20:00:00 11,3 -0,8 8,3 4 2 9 5 WSW 1027,3 50 0 0,0
21.03.2019 19:00:00 14,6 -1,1 11,0 2 1 11 6 WSW 1026,8 50 0 0,0
21.03.2019 18:00:00 17,4 -2,9 19,0 10 5 21 11 ESE 1026,3 49 58 0,0
21.03.2019 17:00:00 18,1 -3,4 20,1 16 9 26 14 SE 1026,1 42 60 0,0
21.03.2019 16:00:00 18,6 -4,2 20,2 17 9 29 16 SE 1026,0 37 60 0,0
21.03.2019 15:00:00 18,9 -3,9 24,3 14 8 22 12 ESE 1026,1 34 60 0,0
21.03.2019 14:00:00 19,0 -1,5 26,4 4 2 14 8 N 1026,6 35 60 0,0
21.03.2019 13:00:00 18,2 -1,1 24,9 3 2 10 5 WNW 1027,4 36 60 0,0
21.03.2019 12:00:00 17,0 -0,3 23,2 2 1 15 8 NNW 1028,0 33 60 0,0
21.03.2019 11:00:00 15,0 1,5 19,2 3 2 11 6 NNE 1028,5 34 60 0,0
21.03.2019 10:00:00 11,7 1,9 13,6 4 2 27 15 ENE 1028,8 32 60 0,0
21.03.2019 09:00:00 6,2 0,7 6,9 2 1 7 4 E 1029,1 35 60 0,0
21.03.2019 08:00:00 2,0 -0,6 -1,4 0 0 3 2 N 1029,2 35 60 0,0
21.03.2019 07:00:00 -1,5 -2,8 -4,1 0 0 3 2 N 1028,6 38 3 0,0
21.03.2019 06:00:00 -0,8 -2,4 -4,2 0 0 5 3 N 1028,3 41 0 0,0
21.03.2019 05:00:00 -1,3 -2,7 -3,5 2 1 8 4 NNW 1028,4 37 0 0,0
21.03.2019 04:00:00 -0,2 -1,6 -3,0 0 0 4 2 N 1028,5 31 0 0,0
21.03.2019 03:00:00 -0,1 -1,8 -2,0 0 0 11 6 N 1028,9 35 0 0,0
21.03.2019 02:00:00 0,5 -1,6 -1,4 8 5 11 6 WNW 1029,1 32 0 0,0
21.03.2019 01:00:00 1,5 -1,1 -0,7 0 0 9 5 N 1029,2 34 0 0,0
21.03.2019 00:00:00 2,5 -0,8 0,6 2 1 4 2 ESE 1029,5 34 0 0,0
20.03.2019 23:00:00 4,3 -0,5 1,2 0 0 7 4 N 1029,4 41 0 0,0
20.03.2019 22:00:00 5,9 0,6 3,4 2 1 17 9 W 1029,1 42 0 0,0
20.03.2019 21:00:00 8,0 0,9 5,2 3 1 14 8 SE 1028,7 49 0 0,0
20.03.2019 20:00:00 10,5 1,0 7,4 4 2 7 4 W 1028,4 42 0 0,0
20.03.2019 19:00:00 12,4 1,1 10,4 0 0 12 6 N 1027,9 50 0 0,0
20.03.2019 18:00:00 13,6 -0,1 13,5 9 5 23 12 SE 1027,3 50 4 0,0
20.03.2019 17:00:00 14,4 0,2 15,4 16 8 32 17 ESE 1026,5 20 37 0,0
20.03.2019 16:00:00 15,5 -0,7 17,2 20 11 36 19 ESE 1026,2 38 60 0,0
20.03.2019 15:00:00 16,1 -1,1 20,9 21 11 29 16 ESE 1026,0 38 60 0,0
20.03.2019 14:00:00 16,2 -0,1 21,2 18 10 28 15 ESE 1026,2 31 60 0,0
20.03.2019 13:00:00 16,8 -2,3 22,9 3 1 10 6 SW 1026,7 38 60 0,0
20.03.2019 12:00:00 - - 19,3 - - 11 6 - - 39 60 -
20.03.2019 11:00:00 13,2 2,1 19,2 2 1 26 14 NW 1027,8 37 60 0,0
20.03.2019 10:00:00 10,1 1,7 13,2 2 1 9 5 SSE 1028,0 37 60 0,0
20.03.2019 09:00:00 6,4 2,5 6,3 2 1 6 4 SE 1027,9 36 60 0,0
20.03.2019 08:00:00 1,4 0,1 -2,2 0 0 4 2 N 1027,7 36 60 0,0
20.03.2019 07:00:00 -1,6 -2,6 -4,2 0 0 3 1 N 1027,1 33 1 0,0
20.03.2019 06:00:00 -1,3 -2,1 -4,2 0 0 5 3 N 1026,5 31 0 0,0
20.03.2019 05:00:00 -1,0 -2,0 -3,8 0 0 7 4 N 1026,3 32 0 0,0
20.03.2019 04:00:00 -0,3 -1,1 -3,3 4 2 5 3 W 1026,1 20 0 0,0
20.03.2019 03:00:00 0,1 -1,2 -2,3 2 1 5 3 SE 1026,3 33 0 0,0
20.03.2019 02:00:00 1,5 0,0 -1,1 0 0 7 4 N 1026,4 20 0 0,0
20.03.2019 01:00:00 1,8 0,6 -0,9 0 0 8 4 N 1026,0 41 0 0,0
20.03.2019 00:00:00 3,1 1,0 0,4 0 0 10 6 N 1025,7 32 0 0,0
19.03.2019 23:00:00 4,5 2,7 1,2 3 1 4 2 WNW 1025,6 42 0 0,0
19.03.2019 22:00:00 5,5 2,8 3,0 0 0 7 4 N 1025,0 30 0 0,0
19.03.2019 21:00:00 7,5 4,1 5,3 5 3 11 6 W 1024,3 33 0 0,0
19.03.2019 20:00:00 9,8 4,8 7,1 4 2 8 4 WSW 1023,7 49 0 0,0
19.03.2019 19:00:00 10,5 4,6 9,2 4 2 8 5 WSW 1023,4 50 0 0,0
19.03.2019 18:00:00 12,0 3,0 10,6 5 3 17 9 ESE 1022,4 50 0 0,0
19.03.2019 17:00:00 11,8 2,5 11,0 10 5 22 12 SSE 1021,9 50 0 0,0
19.03.2019 16:00:00 12,5 2,3 11,1 10 5 33 18 SE 1021,2 43 0 0,0
19.03.2019 15:00:00 14,2 0,1 15,1 20 11 33 18 ESE 1020,4 48 0 0,0
19.03.2019 14:00:00 14,7 -0,6 16,1 24 13 31 17 SE 1020,0 40 0 0,0
19.03.2019 13:00:00 15,9 -2,6 19,1 11 6 22 12 SSE 1020,1 39 50 0,0
19.03.2019 12:00:00 15,2 -1,4 20,6 13 7 21 11 ESE 1020,6 35 60 0,0
19.03.2019 11:00:00 14,4 -0,9 19,3 3 2 8 4 S 1020,7 41 60 0,0
19.03.2019 10:00:00 11,3 0,7 9,3 4 2 16 9 ESE 1020,7 44 53 0,0
19.03.2019 09:00:00 5,4 -0,2 3,8 2 1 5 3 NE 1020,6 45 0 0,0
19.03.2019 08:00:00 2,7 -1,3 1,5 2 1 8 4 E 1020,3 50 1 0,0
19.03.2019 07:00:00 1,7 -2,1 -0,2 2 1 6 3 SW 1019,7 50 0 0,0
19.03.2019 06:00:00 1,3 -2,5 -1,7 0 0 8 4 N 1019,1 50 0 0,0
19.03.2019 05:00:00 1,5 -3,0 -1,9 0 0 6 3 N 1018,7 50 0 0,0
19.03.2019 04:00:00 3,2 -3,0 -0,2 3 1 13 7 ESE 1018,2 50 0 0,0
19.03.2019 03:00:00 6,9 -3,9 4,5 8 4 14 8 SW 1018,0 50 0 0,0
19.03.2019 02:00:00 6,2 -3,7 4,0 4 2 11 6 WSW 1018,2 50 0 0,0
19.03.2019 01:00:00 7,5 -4,3 6,1 6 4 13 7 SW 1018,0 50 0 0,0
19.03.2019 00:00:00 7,5 -4,6 5,7 8 4 13 7 SW 1018,0 50 0 0,0
18.03.2019 23:00:00 8,2 -4,6 6,0 6 4 23 12 S 1017,9 50 0 0,0
18.03.2019 22:00:00 10,0 -4,8 8,2 16 9 23 13 W 1017,4 50 0 0,0
18.03.2019 21:00:00 10,6 -4,6 9,1 16 9 34 19 WNW 1016,9 50 0 0,0
18.03.2019 20:00:00 11,6 -5,4 10,3 21 12 34 18 WNW 1016,2 50 0 0,0
18.03.2019 19:00:00 13,1 -5,0 11,5 18 10 33 18 W 1015,6 50 0 0,0
18.03.2019 18:00:00 15,5 -5,6 15,4 21 12 40 22 NW 1014,3 50 42 0,0
18.03.2019 17:00:00 16,1 -5,1 16,3 23 12 40 22 W 1013,5 50 32 0,0
18.03.2019 16:00:00 16,6 -5,9 18,0 26 14 42 23 W 1013,3 46 41 0,0
18.03.2019 15:00:00 16,8 -5,7 17,1 27 14 40 22 NW 1013,5 44 18 0,0
18.03.2019 14:00:00 15,6 -4,9 14,8 20 11 37 20 WNW 1013,9 50 0 0,0
18.03.2019 13:00:00 14,3 -4,5 13,7 20 11 40 21 WNW 1014,7 50 0 0,0
18.03.2019 12:00:00 13,2 -3,6 12,3 20 11 29 16 WNW 1015,3 50 0 0,0
18.03.2019 11:00:00 12,2 -3,2 11,8 16 8 58 31 NW 1015,5 50 0 0,0
18.03.2019 10:00:00 11,7 -3,3 10,1 38 20 58 31 NW 1014,6 20 0 0,0
18.03.2019 09:00:00 10,0 -2,7 8,9 35 19 59 32 WNW 1013,9 50 16 0,0
18.03.2019 08:00:00 9,0 -2,9 7,7 29 16 63 34 WNW 1013,4 50 41 0,0
18.03.2019 07:00:00 8,1 -3,1 7,3 39 21 61 33 W 1013,1 50 0 0,0
18.03.2019 06:00:00 8,4 -3,2 7,4 33 18 51 27 W 1013,7 50 0 0,0
18.03.2019 05:00:00 8,6 -2,7 7,6 35 19 54 29 W 1013,5 50 0 0,0
18.03.2019 04:00:00 9,1 -1,9 8,0 29 16 50 27 W 1013,5 50 0 0,0
18.03.2019 03:00:00 9,6 -0,9 8,5 26 14 47 25 W 1013,3 50 0 0,0
18.03.2019 02:00:00 10,5 -1,6 9,3 27 14 65 35 W 1013,4 50 0 0,0
18.03.2019 01:00:00 11,1 -2,0 9,9 34 18 65 35 WNW 1013,2 50 0 0,0
18.03.2019 00:00:00 11,9 0,0 10,9 31 17 64 35 W 1012,7 50 0 0,0
17.03.2019 23:00:00 13,3 1,3 12,2 26 14 53 28 WNW 1012,9 50 0 0,0
17.03.2019 22:00:00 14,7 4,1 11,3 26 14 41 22 W 1012,4 50 0 0,0
17.03.2019 21:00:00 12,9 7,1 8,9 7 4 19 10 W 1012,1 42 0 0,0
17.03.2019 20:00:00 13,3 9,2 11,5 8 5 21 12 WSW 1012,1 34 0 0,0
17.03.2019 19:00:00 14,5 9,7 13,2 13 7 21 12 WSW 1012,1 37 2 0,0
17.03.2019 18:00:00 17,2 9,4 18,5 3 1 7 4 S 1011,7 41 43 0,0
17.03.2019 17:00:00 18,2 8,7 19,1 0 0 8 5 N 1011,9 35 40 0,0
17.03.2019 16:00:00 16,9 8,8 19,2 4 2 16 9 SW 1012,6 39 48 0,0
17.03.2019 15:00:00 16,5 9,2 17,3 11 6 16 9 SE 1013,1 32 15 0,0
17.03.2019 14:00:00 15,6 9,0 17,5 12 6 22 12 E 1013,8 37 1 0,0
17.03.2019 13:00:00 16,1 8,3 18,7 11 6 21 12 E 1014,5 35 15 0,0
17.03.2019 12:00:00 15,9 7,6 19,4 13 7 28 15 SE 1015,2 38 41 0,0
17.03.2019 11:00:00 15,5 8,0 14,2 17 9 26 14 E 1015,9 33 14 0,0
17.03.2019 10:00:00 12,5 10,2 11,1 10 5 18 10 E 1016,2 26 0 0,0
17.03.2019 09:00:00 9,5 8,6 8,9 5 3 8 4 SE 1016,3 16 2 0,0
17.03.2019 08:00:00 7,7 7,6 5,9 0 0 5 3 N 1016,1 13 10 0,0
17.03.2019 07:00:00 6,8 6,7 5,7 0 0 6 4 N 1016,1 8 0 0,0
17.03.2019 06:00:00 7,1 7,0 6,7 4 2 6 4 E 1016,1 1,4 0 0,0
17.03.2019 05:00:00 6,7 6,6 5,9 0 0 6 4 N 1016,5 0,2 0 0,0
17.03.2019 04:00:00 6,9 6,6 4,9 3 2 6 3 NE 1016,4 0,2 0 0,0
17.03.2019 03:00:00 7,8 7,5 6,9 0 0 9 5 N 1016,9 2,8 0 0,0
17.03.2019 02:00:00 7,1 6,7 6,4 5 3 8 4 S 1017,9 0,9 0 0,0
17.03.2019 01:00:00 6,6 5,7 4,4 3 1 5 3 E 1017,8 13 0 0,0
17.03.2019 00:00:00 6,7 5,5 3,6 0 0 4 2 N 1018,2 13 0 0,0
16.03.2019 23:00:00 7,8 6,3 4,6 0 0 4 2 N 1018,0 13 0 0,0
16.03.2019 22:00:00 10,1 8,7 6,0 0 0 4 2 N 1018,0 14 0 0,0
16.03.2019 21:00:00 10,5 8,6 6,3 0 0 9 5 N 1017,6 15 0 0,0
16.03.2019 20:00:00 11,3 8,7 9,0 6 3 17 9 NE 1017,3 16 0 0,0
16.03.2019 19:00:00 13,2 9,4 11,9 11 6 16 9 ENE 1016,8 19 0 0,0
16.03.2019 18:00:00 16,1 9,7 17,6 11 6 22 12 ENE 1016,0 20 53 0,0

tt = temperature
td = dewpoint
tt 5cm = temperature 5cm
ff = wind speed
fx = gusts
dd = wind direction
ppp = reduced air pressure
vv = visibility
sd = sunshine duration
rr = precipitation

Next stations